Home > Weather > Salalah > Past weeks

Flag for Oman Past Weather in Salalah, Oman — Yesterday and Last 2 Weeks

Now
86 °F

Passing clouds.


Feels Like: 105 °F
Forecast: 82 / 95 °F
Wind: 7 mph from South

Location: Salalah Airport

Current Time: May 24, 2016 at 9:47:33 PM

Latest Report: May 24, 2016 at 8:50 PM


Visibility: N/A

Pressure: 29.71 "Hg

Humidity: 89%

Dew Point: 82 °F

Location of SalalahLocation

Past Weather in Salalah — Graph

°F

Salalah Temperature Yesterday

Maximum temperature yesterday: 93 °F (at 12:50 PM)
Minimum temperature yesterday: 82 °F (at 5:50 AM)
Average temperature yesterday: 88 °F

High & Low Weather Summary for the Past Weeks

 TemperatureHumidityPressure
High93 °F (May 13, 12:50 PM)94% (May 23, 8:50 PM)29.89 "Hg (May 23, 8:50 PM)
Low82 °F (May 13, 5:50 AM)46% (May 13, 10:50 AM)29.62 "Hg (May 20, 3:50 PM)
Average87 °F75%29.76 "Hg
* Reported May 9 7:50 PM — May 24 7:50 PM, Salalah, Weather by CustomWeather, © 2016

Note: Actual official high and low records may vary slightly from our data, if they occured in-between our weather recording intervals... More about our weather records

Advertising

Salalah Weather History for the Previous 24 Hours

Scroll right to see more
 ConditionsComfort  
Time TempWeatherWind HumidityBarometerVisibility
7:50 PM
Tue, May 24
86 °FPassing clouds.8 mph89%29.68 "HgN/A
6:50 PM86 °FPartly sunny.9 mph89%29.68 "HgN/A
5:50 PM86 °FPartly sunny.12 mph89%29.65 "HgN/A
4:50 PM88 °FSunny.15 mph79%29.65 "Hg10 mi
3:50 PM90 °FSunny.17 mph75%29.65 "Hg10 mi
2:50 PM91 °FSunny.15 mph67%29.65 "Hg10 mi
1:50 PM91 °FSunny.14 mph67%29.68 "Hg10 mi
12:50 PM90 °FPassing clouds.14 mph71%29.71 "HgN/A
11:50 AM90 °FPassing clouds.13 mph71%29.71 "HgN/A
10:50 AM91 °FPassing clouds.5 mph67%29.74 "HgN/A
9:50 AM90 °FPassing clouds.2 mph67%29.77 "HgN/A
8:50 AM86 °FScattered clouds.2 mph75%29.77 "HgN/A
7:50 AM86 °FPartly sunny.2 mph75%29.77 "Hg6 mi
6:50 AM84 °FPartly sunny.1 mph79%29.74 "Hg6 mi
5:50 AM82 °FPartly sunny.No wind89%29.74 "Hg6 mi
4:50 AM82 °FPassing clouds.2 mph89%29.71 "HgN/A
3:50 AM82 °FPassing clouds.5 mph94%29.71 "Hg6 mi
2:50 AM84 °FPassing clouds.5 mph89%29.71 "HgN/A
1:50 AM84 °FPassing clouds.6 mph89%29.74 "HgN/A
12:50 AM84 °FPassing clouds.5 mph89%29.74 "HgN/A
11:50 PM
Mon, May 23
84 °FPassing clouds.3 mph89%29.77 "HgN/A
10:50 PM84 °FPassing clouds.5 mph89%29.77 "HgN/A
9:50 PM84 °FPassing clouds.8 mph89%29.77 "HgN/A
Weather by CustomWeather, © 2016

See weather overviewHow to use our weather pages